2025-284B

Last updated on Mon Dec 15 2025 00:02:13 GMT+0000 (Coordinated Universal Time)

1 66914U 25284B 25348.37521457 .00010305 00000+0 49158-3 0 9991 2 66914 80.4048 127.6928 0008291 241.7793 118.2597 15.18957053 1378
UTC large
Height (km)
Speed (km/s)
/
Latitude / Longitude
Inclination (degrees)
Orbital Period (minutes)
Azimuth
Elevation
Range (km)
Doppler Factor

Next 0 passes for location: London (51.5072 / 0.1276)

Sorry there are no passes over London.